| time (UTC) | temp F | wind direction | speed MPH | gust MPH | rain 1hr in | rain 24hr in | rain mn in | humidity % | barometer mb |
| 20260503233103 | 53 | 209 | 0.0 | 6.0 | 0.00 | 0.00 | 0.00 | 44 | 1010.0 |
| 20260503231503 | 54 | 199 | 2.0 | 7.0 | 0.00 | 0.00 | 0.00 | 44 | 1010.0 |
| 20260503224602 | 54 | 46 | 1.0 | 5.0 | 0.00 | 0.00 | 0.00 | 40 | 1009.8 |
| 20260503223103 | 55 | 219 | 2.0 | 16.0 | 0.00 | 0.00 | 0.00 | 39 | 1009.7 |
| 20260503221502 | 55 | 171 | 1.0 | 9.0 | 0.00 | 0.00 | 0.00 | 37 | 1009.7 |
| 20260503220105 | 55 | 301 | 3.0 | 13.0 | 0.00 | 0.00 | 0.00 | 36 | 1009.5 |
| 20260503214601 | 56 | 128 | 3.0 | 9.0 | 0.00 | 0.00 | 0.00 | 34 | 1009.5 |
| 20260503213003 | 57 | 17 | 2.0 | 8.0 | 0.00 | 0.00 | 0.00 | 30 | 1009.3 |
| 20260503211502 | 57 | 286 | 2.0 | 10.0 | 0.00 | 0.00 | 0.00 | 31 | 1009.3 |
| 20260503210104 | 57 | 283 | 4.0 | 10.0 | 0.00 | 0.00 | 0.00 | 28 | 1009.1 |
| 20260503204622 | 57 | 167 | 2.0 | 11.0 | 0.00 | 0.00 | 0.00 | 31 | 1009.3 |
| 20260503203005 | 57 | 152 | 4.0 | 10.0 | 0.00 | 0.00 | 0.00 | 30 | 1009.3 |
| 20260503201603 | 58 | 42 | 2.0 | 6.0 | 0.00 | 0.00 | 0.00 | 31 | 1009.2 |
| 20260503200105 | 57 | 222 | 2.0 | 10.0 | 0.00 | 0.00 | 0.00 | 32 | 1009.4 |
| 20260503194603 | 56 | 152 | 3.0 | 14.0 | 0.00 | 0.00 | 0.00 | 32 | 1009.7 |
| 20260503193002 | 56 | 28 | 1.0 | 15.0 | 0.00 | 0.00 | 0.00 | 35 | 1009.7 |
| 20260503191607 | 56 | 329 | 2.0 | 11.0 | 0.00 | 0.00 | 0.00 | 33 | 1009.9 |
| 20260503190004 | 54 | 69 | 4.0 | 11.0 | 0.00 | 0.00 | 0.00 | 36 | 1009.9 |
| 20260503184502 | 52 | 268 | 2.0 | 8.0 | 0.00 | 0.00 | 0.00 | 38 | 1010.3 |
| 20260503183108 | 53 | 214 | 3.0 | 8.0 | 0.00 | 0.00 | 0.00 | 38 | 1010.5 |
| 20260503180005 | 53 | 84 | 1.0 | 11.0 | 0.00 | 0.01 | 0.00 | 41 | 1010.6 |
| 20260503174600 | 52 | 185 | 3.0 | 8.0 | 0.00 | 0.01 | 0.00 | 40 | 1010.6 |
| 20260503173001 | 52 | 80 | 3.0 | 10.0 | 0.00 | 0.01 | 0.00 | 41 | 1010.7 |
| 20260503171603 | 51 | 19 | 2.0 | 13.0 | 0.00 | 0.01 | 0.00 | 42 | 1010.8 |
| 20260503160104 | 48 | 70 | 0.0 | 9.0 | 0.00 | 0.01 | 0.00 | 47 | 1011.4 |
| 20260503130104 | 46 | 250 | 3.0 | 15.0 | 0.00 | 0.01 | 0.00 | 55 | 1011.5 |
| 20260503081604 | 33 | 55 | 0.0 | 0.0 | 0.00 | 0.01 | 0.00 | 87 | 1010.5 |
| 20260503071505 | 35 | 55 | 0.0 | 0.0 | 0.00 | 0.03 | 0.00 | 83 | 1010.7 |
| 20260503070115 | 35 | 55 | 0.0 | 0.0 | 0.00 | 0.03 | 0.00 | 83 | 1010.7 |
| 20260503060127 | 36 | 55 | 0.0 | 0.0 | 0.00 | 0.15 | 0.00 | 81 | 1011.1 |
| 20260503054603 | 37 | 55 | 0.0 | 0.0 | 0.00 | 0.23 | 0.00 | 79 | 1011.3 |
| 20260503053002 | 38 | 55 | 0.0 | 0.0 | 0.00 | 0.23 | 0.00 | 77 | 1011.4 |
| 20260503051503 | 39 | 55 | 0.0 | 0.0 | 0.00 | 0.23 | 0.00 | 74 | 1011.6 |
| 20260503050003 | 40 | 55 | 0.0 | 0.0 | 0.00 | 0.23 | 0.00 | 72 | 1011.7 |
| 20260503044502 | 41 | 55 | 0.0 | 2.0 | 0.00 | 0.26 | 0.00 | 70 | 1011.7 |
| 20260503043002 | 41 | 55 | 0.0 | 2.0 | 0.00 | 0.26 | 0.00 | 69 | 1011.7 |
| 20260503041603 | 41 | 53 | 0.0 | 1.0 | 0.00 | 0.26 | 0.00 | 67 | 1011.7 |
| 20260503040002 | 40 | 53 | 0.0 | 1.0 | 0.00 | 0.27 | 0.26 | 68 | 1011.8 |
| 20260503034502 | 41 | 55 | 0.0 | 0.0 | 0.00 | 0.27 | 0.26 | 71 | 1011.6 |
| 20260503033102 | 41 | 55 | 0.0 | 0.0 | 0.00 | 0.27 | 0.26 | 68 | 1011.5 |
| 20260503031603 | 42 | 55 | 0.0 | 3.0 | 0.00 | 0.27 | 0.26 | 64 | 1011.7 |
| 20260503030005 | 42 | 57 | 0.0 | 2.0 | 0.00 | 0.27 | 0.26 | 63 | 1011.7 |
| 20260503024628 | 43 | 57 | 0.0 | 0.0 | 0.00 | 0.27 | 0.26 | 61 | 1011.8 |
| 20260503023002 | 43 | 57 | 0.0 | 2.0 | 0.00 | 0.27 | 0.26 | 59 | 1011.8 |
| 20260503021605 | 42 | 32 | 0.0 | 3.0 | 0.00 | 0.27 | 0.26 | 59 | 1011.9 |
| 20260503020003 | 42 | 9 | 0.0 | 2.0 | 0.00 | 0.27 | 0.26 | 60 | 1011.9 |
| 20260503014551 | 42 | 134 | 0.0 | 0.0 | 0.00 | 0.27 | 0.26 | 62 | 1012.0 |
| 20260503013102 | 43 | 134 | 0.0 | 2.0 | 0.00 | 0.27 | 0.26 | 59 | 1011.9 |
| 20260503011633 | 43 | 134 | 0.0 | 3.0 | 0.00 | 0.27 | 0.26 | 58 | 1011.8 |
| 20260503010003 | 43 | 135 | 0.0 | 2.0 | 0.00 | 0.27 | 0.26 | 57 | 1011.8 |
| 20260503004502 | 44 | 135 | 0.0 | 2.0 | 0.00 | 0.27 | 0.26 | 61 | 1011.6 |
| 20260503003103 | 44 | 136 | 0.0 | 0.0 | 0.00 | 0.27 | 0.26 | 64 | 1011.3 |
| 20260503001503 | 45 | 136 | 0.0 | 0.0 | 0.00 | 0.27 | 0.26 | 62 | 1011.2 |
| 20260503000112 | 46 | 136 | 0.0 | 0.0 | 0.00 | 0.27 | 0.26 | 62 | 1011.2 |
| 20260502234618 | 47 | 136 | 0.0 | 0.0 | 0.00 | 0.27 | 0.26 | 56 | 1011.1 |